Aeroporto :
LOGIN :

Iscrizione | Disclaimer

   EN    FR    IT 

 










Sommario :    VFR   VFR Marginale   IFR   IFR Intensivo   IFR Molto Intensivo
Visibilità : 
Base nubi : 
>= 8 km
>= 3000ft
5 / 8 km
1000 / 3000 ft
1500m / 5 km
500 / 1000 ft
800 / 1500m
200 / 500 ft
< 800m
< 200 ft
Simboli :   Temporali  Nebbia  Neve Forte  Precipitazioni Forti  Vento > 20 kt
SIGMETs :   Varie  Temporali  Ghiacco  Turbolenza  Onda orograficha  Ceneri Vulcaniche







- Altitudine del aeroporto : 102 ft
- Codice IATA : CNG
- Carte del aeroporto


LFBG - Cognac

ULTIMO METAR :
  • 241800Z AUTO 03012KT CAVOK 16/06 Q1031

METARs OBSOLETI :
  • 241730Z AUTO 04015KT CAVOK 17/06 Q1031
  • 241700Z AUTO 05017KT CAVOK 18/05 Q1031 BECMG 04015G25KT
  • 241630Z AUTO 03016KT CAVOK 18/05 Q1031 BECMG 04015G25KT
  • 241600Z AUTO 03017KT CAVOK 18/05 Q1030 BECMG 04015G25KT
  • 241530Z AUTO 04018KT CAVOK 18/05 Q1031 BECMG 04015G25KT

Previsioni scadute.
Nessun NOTAM noto per questo aeroporto.



MetMap, La meteo Aeronautica in un colpo d'occhio ! - Copyright ORBIFLY Dicembre 2007 - Disclaimer

ORBIFLY MET'MAP TEAM :

Programmazione e sviluppo : Alexandra Zaïnal
Concezione e sviluppo : Baudouin d'Aumeries
Co-Programmazione e sviluppo : Marc-Olivier Méhu
Supporto tecnico e logistico : Manuel Goepfert
Aiuto per la traduzione : Arnaldo La Scala

Contatto : metmap@orbifly.com




FONTI E CREDITI :

   NOAA